LNK638N FAGG-FACT

Flight info

Callsign LNK638N
Flight time 0h 45m
Altitude 28000
Route GRV DCT ETBUL UQ49 ESRUK UQ51 GETEN
Aircraft E170/M-SDE3GILORVW/S

Departure

Time 2026-04-27 12:15
Airport George Airport (FAGG)

Arrival

Time 2026-04-27 13:00
Airport Cape Town International Airport (FACT)
Time Latitude Longitude Altitude Speed Heading
2026-04-27 11:50 -34.00122 22.38101 636 ft 0 kts 87°
2026-04-27 12:08 -34.00123 22.38090 636 ft 3 kts 87°
2026-04-27 12:08 -34.00124 22.38069 635 ft 3 kts 87°
2026-04-27 12:08 -34.00125 22.38047 635 ft 2 kts 89°
2026-04-27 12:08 -34.00116 22.38033 639 ft 2 kts 169°
2026-04-27 12:09 -34.00115 22.38033 638 ft 0 kts 170°
2026-04-27 12:11 -34.00123 22.38033 635 ft 2 kts 184°
2026-04-27 12:11 -34.00151 22.38030 635 ft 6 kts 186°
2026-04-27 12:12 -34.00195 22.38041 635 ft 8 kts 158°
2026-04-27 12:12 -34.00250 22.38080 640 ft 10 kts 135°
2026-04-27 12:12 -34.00299 22.38154 639 ft 12 kts 119°
2026-04-27 12:12 -34.00329 22.38258 637 ft 14 kts 90°
2026-04-27 12:13 -34.00325 22.38383 639 ft 16 kts 88°
2026-04-27 12:13 -34.00320 22.38522 640 ft 17 kts 88°
2026-04-27 12:13 -34.00315 22.38675 642 ft 19 kts 87°
2026-04-27 12:13 -34.00313 22.38827 644 ft 15 kts 96°
2026-04-27 12:14 -34.00381 22.38913 645 ft 16 kts 172°
2026-04-27 12:14 -34.00485 22.38920 645 ft 12 kts 179°
2026-04-27 12:14 -34.00520 22.38886 645 ft 8 kts 260°
2026-04-27 12:14 -34.00526 22.38690 641 ft 58 kts 268°
2026-04-27 12:15 -34.00552 22.37846 646 ft 138 kts 268°
2026-04-27 12:15 -34.00573 22.36618 1483 ft 150 kts 269°
2026-04-27 12:15 -34.00574 22.35340 2652 ft 157 kts 267°
2026-04-27 12:15 -34.00584 22.33933 3601 ft 177 kts 267°
2026-04-27 12:16 -34.00575 22.32404 4854 ft 185 kts 269°
2026-04-27 12:16 -34.00559 22.30782 6086 ft 204 kts 268°
2026-04-27 12:16 -34.00560 22.29001 7277 ft 221 kts 268°
2026-04-27 12:16 -34.00560 22.27083 8477 ft 237 kts 268°
2026-04-27 12:17 -34.00555 22.25068 9708 ft 251 kts 268°
2026-04-27 12:17 -34.00549 22.22899 10837 ft 267 kts 268°
2026-04-27 12:17 -34.00543 22.20602 11966 ft 281 kts 269°
2026-04-27 12:17 -34.00530 22.18228 13033 ft 287 kts 269°
2026-04-27 12:18 -34.00517 22.15812 13748 ft 289 kts 269°
2026-04-27 12:18 -34.00505 22.13393 14562 ft 288 kts 269°
2026-04-27 12:18 -34.00492 22.10972 15283 ft 291 kts 269°
2026-04-27 12:18 -34.00480 22.08532 16034 ft 292 kts 269°
2026-04-27 12:19 -34.00468 22.06077 16780 ft 294 kts 269°
2026-04-27 12:19 -34.00455 22.03610 17545 ft 295 kts 270°
2026-04-27 12:19 -34.00439 22.01161 18304 ft 297 kts 270°
2026-04-27 12:19 -34.00425 21.98666 19041 ft 298 kts 270°
2026-04-27 12:20 -34.00411 21.96165 19808 ft 298 kts 270°
2026-04-27 12:20 -34.00395 21.93662 20574 ft 300 kts 270°
2026-04-27 12:20 -34.00382 21.91146 21305 ft 301 kts 270°
2026-04-27 12:20 -34.00364 21.88618 22036 ft 302 kts 270°
2026-04-27 12:21 -34.00359 21.86081 22735 ft 304 kts 268°
2026-04-27 12:21 -34.00480 21.83531 23420 ft 305 kts 268°
2026-04-27 12:21 -34.00567 21.80970 24032 ft 307 kts 268°
2026-04-27 12:21 -34.00650 21.78397 24616 ft 308 kts 268°
2026-04-27 12:22 -34.00861 21.75851 25200 ft 310 kts 266°
2026-04-27 12:22 -34.00923 21.73255 25809 ft 310 kts 269°
2026-04-27 12:22 -34.01022 21.70653 26440 ft 311 kts 268°
2026-04-27 12:22 -34.01108 21.68038 27020 ft 313 kts 268°
2026-04-27 12:23 -34.01187 21.65413 27608 ft 314 kts 268°
2026-04-27 12:23 -34.01267 21.62780 28044 ft 313 kts 268°
2026-04-27 12:23 -34.01346 21.60172 28145 ft 313 kts 268°
2026-04-27 12:24 -34.01503 21.54929 28215 ft 316 kts 268°
2026-04-27 12:24 -34.01658 21.49647 28229 ft 315 kts 269°
2026-04-27 12:25 -34.01811 21.44362 28216 ft 315 kts 269°
2026-04-27 12:25 -34.01961 21.39082 28225 ft 315 kts 269°
2026-04-27 12:26 -34.02110 21.33835 28228 ft 315 kts 269°
2026-04-27 12:26 -34.02256 21.28553 28215 ft 316 kts 268°
2026-04-27 12:26 -34.02330 21.25869 28241 ft 327 kts 269°
2026-04-27 12:27 -34.02404 21.23104 28252 ft 331 kts 269°
2026-04-27 12:27 -34.02553 21.17586 28217 ft 328 kts 269°
2026-04-27 12:28 -34.02697 21.12103 28241 ft 333 kts 269°
2026-04-27 12:28 -34.02841 21.06535 28234 ft 332 kts 269°
2026-04-27 12:29 -34.02983 21.00978 28240 ft 332 kts 269°
2026-04-27 12:29 -34.03099 20.96356 28230 ft 332 kts 269°
2026-04-27 12:30 -34.03258 20.89900 28235 ft 331 kts 269°
2026-04-27 12:30 -34.03392 20.84337 28239 ft 332 kts 269°
2026-04-27 12:31 -34.03524 20.78760 28247 ft 335 kts 269°
2026-04-27 12:31 -34.03632 20.74100 28224 ft 334 kts 269°
2026-04-27 12:32 -34.03781 20.67582 28247 ft 334 kts 269°
2026-04-27 12:32 -34.03905 20.61973 27824 ft 334 kts 269°
2026-04-27 12:32 -34.03968 20.59183 27488 ft 332 kts 269°
2026-04-27 12:33 -34.04008 20.57345 27272 ft 331 kts 269°
2026-04-27 12:33 -34.04068 20.54575 26947 ft 330 kts 269°
2026-04-27 12:33 -34.04126 20.51809 26620 ft 329 kts 269°
2026-04-27 12:33 -34.04185 20.49054 26293 ft 329 kts 269°
2026-04-27 12:34 -34.04262 20.45409 25864 ft 329 kts 269°
2026-04-27 12:34 -34.04318 20.42651 25553 ft 328 kts 269°
2026-04-27 12:34 -34.04374 20.39901 25227 ft 327 kts 269°
2026-04-27 12:34 -34.04411 20.38086 25010 ft 327 kts 269°
2026-04-27 12:35 -34.04466 20.35354 24691 ft 326 kts 269°
2026-04-27 12:35 -34.04519 20.32620 24371 ft 325 kts 269°
2026-04-27 12:35 -34.04573 20.29898 24057 ft 325 kts 269°
2026-04-27 12:35 -34.04626 20.27180 23729 ft 324 kts 269°
2026-04-27 12:36 -34.04694 20.23587 23220 ft 323 kts 269°
2026-04-27 12:36 -34.04728 20.21759 22959 ft 322 kts 269°
2026-04-27 12:36 -34.04780 20.19064 22558 ft 321 kts 269°
2026-04-27 12:36 -34.04829 20.16414 22197 ft 320 kts 269°
2026-04-27 12:37 -34.04878 20.13734 21829 ft 319 kts 269°
2026-04-27 12:37 -34.04926 20.11055 21465 ft 320 kts 269°
2026-04-27 12:37 -34.04974 20.08375 21116 ft 319 kts 269°
2026-04-27 12:37 -34.05021 20.05708 20769 ft 318 kts 269°
2026-04-27 12:38 -34.05067 20.03048 20430 ft 317 kts 269°
2026-04-27 12:38 -34.05113 20.00391 20096 ft 317 kts 269°
2026-04-27 12:38 -34.05158 19.97733 19757 ft 317 kts 269°
2026-04-27 12:38 -34.05201 19.95114 19425 ft 316 kts 269°
2026-04-27 12:39 -34.05248 19.92459 19078 ft 316 kts 268°
2026-04-27 12:39 -34.05289 19.89811 18748 ft 315 kts 268°
2026-04-27 12:39 -34.05330 19.87178 18385 ft 314 kts 268°
2026-04-27 12:39 -34.05374 19.84543 18001 ft 314 kts 268°
2026-04-27 12:40 -34.05415 19.81913 17617 ft 313 kts 268°
2026-04-27 12:40 -34.05458 19.79286 17291 ft 314 kts 268°
2026-04-27 12:40 -34.05497 19.76658 16942 ft 313 kts 268°
2026-04-27 12:40 -34.05537 19.74069 16609 ft 313 kts 268°
2026-04-27 12:41 -34.05576 19.71446 16232 ft 314 kts 268°
2026-04-27 12:41 -34.05617 19.68829 15859 ft 311 kts 268°
2026-04-27 12:41 -34.05649 19.66227 15480 ft 310 kts 268°
2026-04-27 12:41 -34.05685 19.63630 15105 ft 310 kts 268°
2026-04-27 12:42 -34.05437 19.61058 14721 ft 312 kts 282°
2026-04-27 12:42 -34.04890 19.58520 14349 ft 312 kts 280°
2026-04-27 12:42 -34.04405 19.55975 13976 ft 311 kts 279°
2026-04-27 12:42 -34.04010 19.53457 13566 ft 308 kts 274°
2026-04-27 12:43 -34.03876 19.50885 13155 ft 307 kts 269°
2026-04-27 12:43 -34.03834 19.48316 12750 ft 306 kts 268°
2026-04-27 12:43 -34.03764 19.45758 12356 ft 306 kts 271°
2026-04-27 12:43 -34.03588 19.43192 11990 ft 307 kts 272°
2026-04-27 12:44 -34.03398 19.40634 11625 ft 307 kts 272°
2026-04-27 12:44 -34.03200 19.38083 11248 ft 302 kts 272°
2026-04-27 12:44 -34.03009 19.35636 10839 ft 293 kts 272°
2026-04-27 12:44 -34.02819 19.33224 10457 ft 286 kts 272°
2026-04-27 12:45 -34.02636 19.30886 10343 ft 275 kts 272°
2026-04-27 12:45 -34.02461 19.28621 10290 ft 270 kts 272°
2026-04-27 12:45 -34.02287 19.26364 10272 ft 271 kts 272°
2026-04-27 12:45 -34.02117 19.24173 10277 ft 272 kts 272°
2026-04-27 12:46 -34.01931 19.21827 10267 ft 272 kts 272°
2026-04-27 12:46 -34.01749 19.19560 10278 ft 271 kts 272°
2026-04-27 12:46 -34.01251 19.17359 10267 ft 277 kts 289°
2026-04-27 12:46 -34.00437 19.15240 10159 ft 279 kts 291°
2026-04-27 12:47 -33.99583 19.13179 10040 ft 278 kts 292°
2026-04-27 12:47 -33.98701 19.11102 9906 ft 280 kts 293°
2026-04-27 12:47 -33.97806 19.09021 9792 ft 281 kts 293°
2026-04-27 12:47 -33.96905 19.06935 9638 ft 281 kts 293°
2026-04-27 12:48 -33.96011 19.04850 9281 ft 279 kts 293°
2026-04-27 12:48 -33.95127 19.02782 9007 ft 277 kts 293°
2026-04-27 12:48 -33.94244 19.00733 8748 ft 276 kts 294°
2026-04-27 12:48 -33.93366 18.98685 8489 ft 275 kts 294°
2026-04-27 12:49 -33.92502 18.96639 8251 ft 273 kts 293°
2026-04-27 12:49 -33.91657 18.94626 7996 ft 272 kts 293°
2026-04-27 12:49 -33.90808 18.92611 7739 ft 267 kts 294°
2026-04-27 12:49 -33.89979 18.90644 7484 ft 260 kts 294°
2026-04-27 12:50 -33.89168 18.88715 7238 ft 257 kts 293°
2026-04-27 12:50 -33.88365 18.86792 6978 ft 258 kts 294°
2026-04-27 12:50 -33.87565 18.84860 6671 ft 258 kts 293°
2026-04-27 12:50 -33.86771 18.82936 6368 ft 256 kts 293°
2026-04-27 12:51 -33.85985 18.81027 6072 ft 252 kts 293°
2026-04-27 12:51 -33.85221 18.79173 5779 ft 249 kts 293°
2026-04-27 12:51 -33.84459 18.77314 5463 ft 246 kts 293°
2026-04-27 12:51 -33.83694 18.75483 5148 ft 244 kts 294°
2026-04-27 12:52 -33.82936 18.73662 4823 ft 243 kts 294°
2026-04-27 12:52 -33.82187 18.71853 4515 ft 241 kts 294°
2026-04-27 12:52 -33.81399 18.70079 4216 ft 240 kts 298°
2026-04-27 12:52 -33.80477 18.68409 3906 ft 240 kts 302°
2026-04-27 12:53 -33.78544 18.65187 3318 ft 238 kts 303°
2026-04-27 12:53 -33.77573 18.63588 3128 ft 233 kts 303°
2026-04-27 12:53 -33.76631 18.62048 3050 ft 224 kts 303°
2026-04-27 12:54 -33.75716 18.60589 3004 ft 213 kts 304°
2026-04-27 12:54 -33.75089 18.59075 2951 ft 195 kts 273°
2026-04-27 12:54 -33.75396 18.57603 2941 ft 179 kts 229°
2026-04-27 12:54 -33.76417 18.56857 3022 ft 171 kts 199°
2026-04-27 12:55 -33.77567 18.56428 3103 ft 176 kts 198°
2026-04-27 12:55 -33.78729 18.55991 3104 ft 174 kts 198°
2026-04-27 12:55 -33.79856 18.55573 3074 ft 160 kts 198°
2026-04-27 12:55 -33.80908 18.55351 3036 ft 156 kts 179°
2026-04-27 12:56 -33.81973 18.55596 3018 ft 157 kts 168°
2026-04-27 12:56 -33.83047 18.55916 2945 ft 160 kts 171°
2026-04-27 12:56 -33.84120 18.56231 2718 ft 158 kts 169°
2026-04-27 12:56 -33.85166 18.56571 2502 ft 155 kts 170°
2026-04-27 12:57 -33.86212 18.56899 2302 ft 155 kts 169°
2026-04-27 12:57 -33.87254 18.57230 2107 ft 152 kts 169°
2026-04-27 12:57 -33.88232 18.57541 1864 ft 139 kts 171°
2026-04-27 12:57 -33.89135 18.57827 1633 ft 129 kts 171°
2026-04-27 12:58 -33.89951 18.58087 1428 ft 118 kts 172°
2026-04-27 12:58 -33.90739 18.58337 1281 ft 123 kts 171°
2026-04-27 12:58 -33.91589 18.58606 1150 ft 127 kts 171°
2026-04-27 12:58 -33.92450 18.58896 966 ft 129 kts 170°
2026-04-27 12:59 -33.93313 18.59163 777 ft 127 kts 172°
2026-04-27 12:59 -33.94176 18.59426 611 ft 130 kts 171°
2026-04-27 12:59 -33.95053 18.59715 403 ft 130 kts 169°
2026-04-27 12:59 -33.95914 18.59987 212 ft 125 kts 170°
2026-04-27 13:00 -33.96695 18.60227 158 ft 102 kts 163°
2026-04-27 13:00 -33.97256 18.60409 152 ft 72 kts 166°
2026-04-27 13:00 -33.97584 18.60512 148 ft 26 kts 165°
2026-04-27 13:00 -33.97715 18.60553 152 ft 13 kts 165°
2026-04-27 13:01 -33.97787 18.60543 152 ft 10 kts 241°
2026-04-27 13:01 -33.97770 18.60439 153 ft 16 kts 287°
2026-04-27 13:01 -33.97748 18.60343 161 ft 9 kts 284°
2026-04-27 13:01 -33.97731 18.60264 161 ft 11 kts 284°
2026-04-27 13:02 -33.97692 18.60181 162 ft 13 kts 334°
2026-04-27 13:02 -33.97598 18.60140 162 ft 16 kts 338°
2026-04-27 13:02 -33.97488 18.60081 162 ft 19 kts 339°
2026-04-27 13:02 -33.97357 18.60034 162 ft 19 kts 345°
2026-04-27 13:03 -33.97233 18.59996 162 ft 18 kts 345°
2026-04-27 13:03 -33.97184 18.59981 162 ft 0 kts 348°
2026-04-27 13:03 -33.97177 18.59980 162 ft 1 kts
2026-04-27 13:03 -33.97166 18.59985 162 ft 3 kts 37°
2026-04-27 13:04 -33.97159 18.60011 162 ft 5 kts 105°
2026-04-27 13:04 -33.97175 18.60057 162 ft 4 kts 89°